{"data":{"norad_id":69657,"intl_designator":"2026-143J","name":"STARLINK-37784","alt_names":[],"object_type":"PAYLOAD","status":"ACTIVE","operator":null,"country":"US","launch_date":"2026-06-21","launch_site_code":"AFWTR","launch_vehicle":null,"mission":null,"orbit_class":"UNKNOWN","rcs_meters":null,"size_class":null,"mass_kg":null,"dimensions":null,"purposes":["comms"],"wikipedia_slug":null,"has_3d_model":false,"image_url":null,"decayed_at":null,"tle_current":{"epoch":"2026-09-20T02:11:15.529344Z","epoch_age_seconds":56984,"freshness":"FRESH","line1":"1 69657U 26143J   26263.09115196  .00010211  00000+0  31835-3 0  9997","line2":"2 69657  97.2853 306.3408 0001598  94.3634 265.7791 15.33426199 15089","mean_motion":15.33426199,"eccentricity":0.0001598,"inclination_deg":97.2853,"raan_deg":306.3408,"arg_perigee_deg":94.3634,"mean_anomaly_deg":265.7791,"bstar":0.00031835,"rev_number":1508,"period_min":93.907356020073,"perigee_km":464.50548456709,"apogee_km":466.692742629,"semimajor_km":6843.736113598,"source":"CELESTRAK","updated_at":"2026-09-20T09:00:44.248444Z"}}}